NUSAT-12 (DOROTHY) (46827 NORAD) Tracking and Keplerian Element Data

This shows tracking and keplerian element data for the satellite.

Feedback or suggestion? Click here.




ElementValue
Catalog46827
NameNUSAT-12 (DOROTHY)
Epoch Orbit1116
Epoch Day18.13658322
Epoch Year2021
RAAN94.8157
Inclination97.2587
Eccentricity0.0009603
Argument of Perigee358.2026
Mean Anonmoly60.1029
Mean Motion15.3107557
Decay Rate6.22E-06
L11 46827U 20079A 21018.13658322 .00000622 00000-0 23160-4 0 9993
L22 46827 97.2587 94.8157 0009603 358.2026 60.1029 15.31075570 11166

Live tracking and technical data element details for NUSAT-12 (DOROTHY) (NORAD 46827). NUSAT-12 (DOROTHY) can be tracked NOW for your location showing map with azimuth and elevation plus other details from your city location.

Track the satellite on the map from your city or location and see movement details for azimuth, elevation, latitude, longitude, range, height, and movement on the map or in text.







IsCatalogInMostPopularTable: catalog: 46827, numindb: 28
Update: records affected: 1



GetName: 46827 NUSAT-12 (DOROTHY)

Hit Count: updated at: Mon, 18 Jan 2021 17:02:29 GMT